owner,sensor,date,latitude,longitude,vertical_datum,sea_water_practical_salinity,qcFlag 
SCCF RECON,ioos:station:SCCF:51:1,2011-04-01T00:00:00Z,26.5545,-82.1715,1.632,33.49,1111122 
SCCF RECON,ioos:station:SCCF:51:1,2011-04-01T01:00:00Z,26.5545,-82.1715,1.736,33.73,1111122 
SCCF RECON,ioos:station:SCCF:51:1,2011-04-01T02:00:00Z,26.5545,-82.1715,1.891,34.35,1111122 
SCCF RECON,ioos:station:SCCF:51:1,2011-04-01T03:00:00Z,26.5545,-82.1715,1.959,34.42,1111122 
SCCF RECON,ioos:station:SCCF:51:1,2011-04-01T04:00:00Z,26.5545,-82.1715,1.991,34.5,1111122 
SCCF RECON,ioos:station:SCCF:51:1,2011-04-01T05:00:00Z,26.5545,-82.1715,1.964,34.44,1111122 
SCCF RECON,ioos:station:SCCF:51:1,2011-04-01T06:00:00Z,26.5545,-82.1715,1.899,34.11,1111122 
SCCF RECON,ioos:station:SCCF:51:1,2011-04-01T07:00:00Z,26.5545,-82.1715,1.82,33.67,1111122 
SCCF RECON,ioos:station:SCCF:51:1,2011-04-01T08:00:00Z,26.5545,-82.1715,1.738,33.49,1111122 
SCCF RECON,ioos:station:SCCF:51:1,2011-04-01T09:00:00Z,26.5545,-82.1715,1.656,33.43,1111122 
SCCF RECON,ioos:station:SCCF:51:1,2011-04-01T10:00:00Z,26.5545,-82.1715,1.614,33.48,1111122 
SCCF RECON,ioos:station:SCCF:51:1,2011-04-01T11:00:00Z,26.5545,-82.1715,1.575,33.48,1111122 
SCCF RECON,ioos:station:SCCF:51:1,2011-04-01T12:00:00Z,26.5545,-82.1715,1.611,33.6,1111122 
SCCF RECON,ioos:station:SCCF:51:1,2011-04-01T13:00:00Z,26.5545,-82.1715,1.682,33.53,1111122 
SCCF RECON,ioos:station:SCCF:51:1,2011-04-01T14:00:00Z,26.5545,-82.1715,1.78,33.9,1111122 
SCCF RECON,ioos:station:SCCF:51:1,2011-04-01T15:00:00Z,26.5545,-82.1715,1.874,34.11,1111122 
SCCF RECON,ioos:station:SCCF:51:1,2011-04-01T16:00:00Z,26.5545,-82.1715,1.909,34.28,1111122 
SCCF RECON,ioos:station:SCCF:51:1,2011-04-01T17:00:00Z,26.5545,-82.1715,1.895,34.21,1111122 
SCCF RECON,ioos:station:SCCF:51:1,2011-04-01T18:00:00Z,26.5545,-82.1715,1.835,33.95,1111122 
SCCF RECON,ioos:station:SCCF:51:1,2011-04-01T19:00:00Z,26.5545,-82.1715,1.744,33.77,1111122 
SCCF RECON,ioos:station:SCCF:51:1,2011-04-01T20:00:00Z,26.5545,-82.1715,1.657,33.6,1111122 
SCCF RECON,ioos:station:SCCF:51:1,2011-04-01T21:00:00Z,26.5545,-82.1715,1.57,33.59,1111122 
SCCF RECON,ioos:station:SCCF:51:1,2011-04-01T22:00:00Z,26.5545,-82.1715,1.485,33.6,1111122 
SCCF RECON,ioos:station:SCCF:51:1,2011-04-01T23:00:00Z,26.5545,-82.1715,1.428,33.63,1111122 
SCCF RECON,ioos:station:SCCF:51:1,2011-04-02T00:00:00Z,26.5545,-82.1715,1.428,33.54,1111122 
SCCF RECON,ioos:station:SCCF:51:1,2011-04-02T01:00:00Z,26.5545,-82.1715,1.497,33.66,1111122 
SCCF RECON,ioos:station:SCCF:51:1,2011-04-02T02:00:00Z,26.5545,-82.1715,1.582,34.06,1111122 
SCCF RECON,ioos:station:SCCF:51:1,2011-04-02T03:00:00Z,26.5545,-82.1715,1.699,34.27,1111122 
SCCF RECON,ioos:station:SCCF:51:1,2011-04-02T04:00:00Z,26.5545,-82.1715,1.802,34.46,1111122 
SCCF RECON,ioos:station:SCCF:51:1,2011-04-02T05:00:00Z,26.5545,-82.1715,1.873,34.49,1111122 
SCCF RECON,ioos:station:SCCF:51:1,2011-04-02T06:00:00Z,26.5545,-82.1715,1.863,34.47,1111122 
SCCF RECON,ioos:station:SCCF:51:1,2011-04-02T07:00:00Z,26.5545,-82.1715,1.8,34.28,1111122 
SCCF RECON,ioos:station:SCCF:51:1,2011-04-02T08:00:00Z,26.5545,-82.1715,1.701,34.06,1111122 
SCCF RECON,ioos:station:SCCF:51:1,2011-04-02T09:00:00Z,26.5545,-82.1715,1.61,33.96,1111122 
SCCF RECON,ioos:station:SCCF:51:1,2011-04-02T10:00:00Z,26.5545,-82.1715,1.554,33.79,1111122 
SCCF RECON,ioos:station:SCCF:51:1,2011-04-02T11:00:00Z,26.5545,-82.1715,1.522,33.7,1111122 
SCCF RECON,ioos:station:SCCF:51:1,2011-04-02T12:00:00Z,26.5545,-82.1715,1.549,33.77,1111122 
SCCF RECON,ioos:station:SCCF:51:1,2011-04-02T13:00:00Z,26.5545,-82.1715,1.625,34.03,1111122 
SCCF RECON,ioos:station:SCCF:51:1,2011-04-02T14:00:00Z,26.5545,-82.1715,1.723,34.29,1111122 
SCCF RECON,ioos:station:SCCF:51:1,2011-04-02T15:00:00Z,26.5545,-82.1715,1.835,34.46,1111122 
SCCF RECON,ioos:station:SCCF:51:1,2011-04-02T16:00:00Z,26.5545,-82.1715,1.907,34.47,1111122 
SCCF RECON,ioos:station:SCCF:51:1,2011-04-02T17:00:00Z,26.5545,-82.1715,1.94,34.46,1111122 
SCCF RECON,ioos:station:SCCF:51:1,2011-04-02T18:00:00Z,26.5545,-82.1715,1.903,34.33,1111122 
SCCF RECON,ioos:station:SCCF:51:1,2011-04-02T19:00:00Z,26.5545,-82.1715,1.822,34.39,1111122 
SCCF RECON,ioos:station:SCCF:51:1,2011-04-02T20:00:00Z,26.5545,-82.1715,1.722,33.99,1111122 
SCCF RECON,ioos:station:SCCF:51:1,2011-04-02T21:00:00Z,26.5545,-82.1715,1.613,33.81,1111122 
SCCF RECON,ioos:station:SCCF:51:1,2011-04-02T22:00:00Z,26.5545,-82.1715,1.514,33.4,1111122 
SCCF RECON,ioos:station:SCCF:51:1,2011-04-02T23:00:00Z,26.5545,-82.1715,1.438,33.22,1111122 
SCCF RECON,ioos:station:SCCF:51:1,2011-04-03T00:00:00Z,26.5545,-82.1715,1.405,33.16,1111122 
SCCF RECON,ioos:station:SCCF:51:1,2011-04-03T01:00:00Z,26.5545,-82.1715,1.447,33.3,1111122 
SCCF RECON,ioos:station:SCCF:51:1,2011-04-03T02:00:00Z,26.5545,-82.1715,1.522,33.75,1111122 
SCCF RECON,ioos:station:SCCF:51:1,2011-04-03T03:00:00Z,26.5545,-82.1715,1.64,34.13,1111122 
SCCF RECON,ioos:station:SCCF:51:1,2011-04-03T04:00:00Z,26.5545,-82.1715,1.763,34.49,1111122 
SCCF RECON,ioos:station:SCCF:51:1,2011-04-03T05:00:00Z,26.5545,-82.1715,1.859,34.44,1111122 
SCCF RECON,ioos:station:SCCF:51:1,2011-04-03T06:00:00Z,26.5545,-82.1715,1.891,34.45,1111122 
SCCF RECON,ioos:station:SCCF:51:1,2011-04-03T07:00:00Z,26.5545,-82.1715,1.841,34.46,1111122 
SCCF RECON,ioos:station:SCCF:51:1,2011-04-03T08:00:00Z,26.5545,-82.1715,1.767,34.23,1111122 
SCCF RECON,ioos:station:SCCF:51:1,2011-04-03T09:00:00Z,26.5545,-82.1715,1.679,33.88,1111122 
SCCF RECON,ioos:station:SCCF:51:1,2011-04-03T10:00:00Z,26.5545,-82.1715,1.605,33.68,1111122 
SCCF RECON,ioos:station:SCCF:51:1,2011-04-03T11:00:00Z,26.5545,-82.1715,1.547,33.49,1111122 
SCCF RECON,ioos:station:SCCF:51:1,2011-04-03T12:00:00Z,26.5545,-82.1715,1.519,33.45,1111122 
SCCF RECON,ioos:station:SCCF:51:1,2011-04-03T13:00:00Z,26.5545,-82.1715,1.54,33.64,1111122 
SCCF RECON,ioos:station:SCCF:51:1,2011-04-03T14:00:00Z,26.5545,-82.1715,1.602,33.96,1111122 
SCCF RECON,ioos:station:SCCF:51:1,2011-04-03T15:00:00Z,26.5545,-82.1715,1.687,34.21,1111122 
SCCF RECON,ioos:station:SCCF:51:1,2011-04-03T16:00:00Z,26.5545,-82.1715,1.782,34.36,1111122 
SCCF RECON,ioos:station:SCCF:51:1,2011-04-03T17:00:00Z,26.5545,-82.1715,1.859,34.5,1111122 
SCCF RECON,ioos:station:SCCF:51:1,2011-04-03T18:00:00Z,26.5545,-82.1715,1.869,34.49,1111122 
SCCF RECON,ioos:station:SCCF:51:1,2011-04-03T19:00:00Z,26.5545,-82.1715,1.795,34.37,1111122 
SCCF RECON,ioos:station:SCCF:51:1,2011-04-03T20:00:00Z,26.5545,-82.1715,1.699,34.08,1111122 
SCCF RECON,ioos:station:SCCF:51:1,2011-04-03T21:00:00Z,26.5545,-82.1715,1.587,33.89,1111122 
SCCF RECON,ioos:station:SCCF:51:1,2011-04-03T22:00:00Z,26.5545,-82.1715,1.478,33.77,1111122 
SCCF RECON,ioos:station:SCCF:51:1,2011-04-03T23:00:00Z,26.5545,-82.1715,1.39,33.51,1111122 
SCCF RECON,ioos:station:SCCF:51:1,2011-04-04T00:00:00Z,26.5545,-82.1715,1.347,33.45,1111122 
SCCF RECON,ioos:station:SCCF:51:1,2011-04-04T01:00:00Z,26.5545,-82.1715,1.37,33.57,1111122 
SCCF RECON,ioos:station:SCCF:51:1,2011-04-04T02:00:00Z,26.5545,-82.1715,1.461,33.46,1111122 
SCCF RECON,ioos:station:SCCF:51:1,2011-04-04T03:00:00Z,26.5545,-82.1715,1.565,33.71,1111122 
SCCF RECON,ioos:station:SCCF:51:1,2011-04-04T04:00:00Z,26.5545,-82.1715,1.691,34.36,1111122 
SCCF RECON,ioos:station:SCCF:51:1,2011-04-04T05:00:00Z,26.5545,-82.1715,1.808,34.11,1111122 
SCCF RECON,ioos:station:SCCF:51:1,2011-04-04T06:00:00Z,26.5545,-82.1715,1.889,34.13,1111122 
SCCF RECON,ioos:station:SCCF:51:1,2011-04-04T07:00:00Z,26.5545,-82.1715,1.895,34.31,1111122 
SCCF RECON,ioos:station:SCCF:51:1,2011-04-04T08:00:00Z,26.5545,-82.1715,1.83,33.91,1111122 
SCCF RECON,ioos:station:SCCF:51:1,2011-04-04T09:00:00Z,26.5545,-82.1715,1.755,33.72,1111122 
SCCF RECON,ioos:station:SCCF:51:1,2011-04-04T10:00:00Z,26.5545,-82.1715,1.69,33.55,1111122 
SCCF RECON,ioos:station:SCCF:51:1,2011-04-04T11:00:00Z,26.5545,-82.1715,1.639,33.52,1111122 
SCCF RECON,ioos:station:SCCF:51:1,2011-04-04T12:00:00Z,26.5545,-82.1715,1.632,33.51,1111122 
SCCF RECON,ioos:station:SCCF:51:1,2011-04-04T13:00:00Z,26.5545,-82.1715,1.68,33.54,1111122 
SCCF RECON,ioos:station:SCCF:51:1,2011-04-04T14:00:00Z,26.5545,-82.1715,1.766,33.58,1111122 
SCCF RECON,ioos:station:SCCF:51:1,2011-04-04T15:00:00Z,26.5545,-82.1715,1.863,34.28,1111122 
SCCF RECON,ioos:station:SCCF:51:1,2011-04-04T16:00:00Z,26.5545,-82.1715,1.961,34.27,1111122 
SCCF RECON,ioos:station:SCCF:51:1,2011-04-04T17:00:00Z,26.5545,-82.1715,2.023,34.46,1111122 
SCCF RECON,ioos:station:SCCF:51:1,2011-04-04T18:00:00Z,26.5545,-82.1715,2.026,34.07,1111122 
SCCF RECON,ioos:station:SCCF:51:1,2011-04-04T19:00:00Z,26.5545,-82.1715,1.971,34.12,1111122 
SCCF RECON,ioos:station:SCCF:51:1,2011-04-04T20:00:00Z,26.5545,-82.1715,1.886,33.72,1111122 
SCCF RECON,ioos:station:SCCF:51:1,2011-04-04T21:00:00Z,26.5545,-82.1715,1.793,33.6,1111122 
SCCF RECON,ioos:station:SCCF:51:1,2011-04-04T22:00:00Z,26.5545,-82.1715,1.671,33.67,1111122 
SCCF RECON,ioos:station:SCCF:51:1,2011-04-04T23:00:00Z,26.5545,-82.1715,1.56,33.75,1111122 
SCCF RECON,ioos:station:SCCF:51:1,2011-04-05T00:00:00Z,26.5545,-82.1715,1.473,33.93,1111122 
SCCF RECON,ioos:station:SCCF:51:1,2011-04-05T01:00:00Z,26.5545,-82.1715,1.422,33.95,1111122 
SCCF RECON,ioos:station:SCCF:51:1,2011-04-05T02:00:00Z,26.5545,-82.1715,1.457,33.84,1111122 
SCCF RECON,ioos:station:SCCF:51:1,2011-04-05T03:00:00Z,26.5545,-82.1715,1.55,33.82,1111122 
SCCF RECON,ioos:station:SCCF:51:1,2011-04-05T04:00:00Z,26.5545,-82.1715,1.679,34.12,1111122 
SCCF RECON,ioos:station:SCCF:51:1,2011-04-05T05:00:00Z,26.5545,-82.1715,1.801,33.81,1111122 
SCCF RECON,ioos:station:SCCF:51:1,2011-04-05T06:00:00Z,26.5545,-82.1715,1.904,34.42,1111122 
SCCF RECON,ioos:station:SCCF:51:1,2011-04-05T07:00:00Z,26.5545,-82.1715,1.949,34.52,1111122 
SCCF RECON,ioos:station:SCCF:51:1,2011-04-05T08:00:00Z,26.5545,-82.1715,1.921,34.14,1111122 
SCCF RECON,ioos:station:SCCF:51:1,2011-04-05T09:00:00Z,26.5545,-82.1715,1.862,34.2,1111122 
SCCF RECON,ioos:station:SCCF:51:1,2011-04-05T10:00:00Z,26.5545,-82.1715,1.794,33.88,1111122 
SCCF RECON,ioos:station:SCCF:51:1,2011-04-05T11:00:00Z,26.5545,-82.1715,1.749,34.01,1111122 
SCCF RECON,ioos:station:SCCF:51:1,2011-04-05T12:00:00Z,26.5545,-82.1715,1.736,33.98,1111122 
SCCF RECON,ioos:station:SCCF:51:1,2011-04-05T13:00:00Z,26.5545,-82.1715,1.763,33.94,1111122 
SCCF RECON,ioos:station:SCCF:51:1,2011-04-05T14:00:00Z,26.5545,-82.1715,1.843,33.95,1111122 
SCCF RECON,ioos:station:SCCF:51:1,2011-04-05T15:00:00Z,26.5545,-82.1715,1.942,34.31,1111122 
SCCF RECON,ioos:station:SCCF:51:1,2011-04-05T16:00:00Z,26.5545,-82.1715,2.087,34.62,1111122 
SCCF RECON,ioos:station:SCCF:51:1,2011-04-05T17:00:00Z,26.5545,-82.1715,2.025,34.59,1111122 
SCCF RECON,ioos:station:SCCF:51:1,2011-04-05T18:00:00Z,26.5545,-82.1715,2.038,34.64,1111122 
SCCF RECON,ioos:station:SCCF:51:1,2011-04-05T19:00:00Z,26.5545,-82.1715,2.041,34.65,1111122 
SCCF RECON,ioos:station:SCCF:51:1,2011-04-05T20:00:00Z,26.5545,-82.1715,1.908,34.24,1111122 
SCCF RECON,ioos:station:SCCF:51:1,2011-04-05T21:00:00Z,26.5545,-82.1715,1.819,33.9,1111122 
SCCF RECON,ioos:station:SCCF:51:1,2011-04-05T22:00:00Z,26.5545,-82.1715,1.723,33.89,1111122 
SCCF RECON,ioos:station:SCCF:51:1,2011-04-05T23:00:00Z,26.5545,-82.1715,1.62,33.87,1111122 
SCCF RECON,ioos:station:SCCF:51:1,2011-04-06T00:00:00Z,26.5545,-82.1715,1.526,33.9,1111122 
SCCF RECON,ioos:station:SCCF:51:1,2011-04-06T01:00:00Z,26.5545,-82.1715,1.441,33.96,1111122 
SCCF RECON,ioos:station:SCCF:51:1,2011-04-06T02:00:00Z,26.5545,-82.1715,1.389,33.92,1111122 
SCCF RECON,ioos:station:SCCF:51:1,2011-04-06T03:00:00Z,26.5545,-82.1715,1.368,33.93,1111122 
SCCF RECON,ioos:station:SCCF:51:1,2011-04-06T04:00:00Z,26.5545,-82.1715,1.465,33.91,1111122 
SCCF RECON,ioos:station:SCCF:51:1,2011-04-06T05:00:00Z,26.5545,-82.1715,1.546,33.73,1111122 
SCCF RECON,ioos:station:SCCF:51:1,2011-04-06T06:00:00Z,26.5545,-82.1715,1.639,33.81,1111122 
SCCF RECON,ioos:station:SCCF:51:1,2011-04-06T07:00:00Z,26.5545,-82.1715,1.734,34.24,1111122 
SCCF RECON,ioos:station:SCCF:51:1,2011-04-06T08:00:00Z,26.5545,-82.1715,1.784,34.47,1111122 
SCCF RECON,ioos:station:SCCF:51:1,2011-04-06T09:00:00Z,26.5545,-82.1715,1.757,34.38,1111122 
SCCF RECON,ioos:station:SCCF:51:1,2011-04-06T10:00:00Z,26.5545,-82.1715,1.703,34.13,1111122 
SCCF RECON,ioos:station:SCCF:51:1,2011-04-06T11:00:00Z,26.5545,-82.1715,1.651,33.97,1111122 
SCCF RECON,ioos:station:SCCF:51:1,2011-04-06T12:00:00Z,26.5545,-82.1715,1.606,33.89,1111122 
SCCF RECON,ioos:station:SCCF:51:1,2011-04-06T13:00:00Z,26.5545,-82.1715,1.602,33.88,1111122 
SCCF RECON,ioos:station:SCCF:51:1,2011-04-06T14:00:00Z,26.5545,-82.1715,1.653,33.87,1111122 
SCCF RECON,ioos:station:SCCF:51:1,2011-04-06T15:00:00Z,26.5545,-82.1715,1.739,34.02,1111122 
SCCF RECON,ioos:station:SCCF:51:1,2011-04-06T16:00:00Z,26.5545,-82.1715,1.829,34.36,1111122 
SCCF RECON,ioos:station:SCCF:51:1,2011-04-06T17:00:00Z,26.5545,-82.1715,1.929,34.26,1111122 
SCCF RECON,ioos:station:SCCF:51:1,2011-04-06T18:00:00Z,26.5545,-82.1715,1.997,34.3,1111122 
SCCF RECON,ioos:station:SCCF:51:1,2011-04-06T19:00:00Z,26.5545,-82.1715,2.013,34.37,1111122 
SCCF RECON,ioos:station:SCCF:51:1,2011-04-06T20:00:00Z,26.5545,-82.1715,1.971,34.34,1111122 
SCCF RECON,ioos:station:SCCF:51:1,2011-04-06T21:00:00Z,26.5545,-82.1715,1.886,34.32,1111122 
SCCF RECON,ioos:station:SCCF:51:1,2011-04-06T22:00:00Z,26.5545,-82.1715,1.787,34.18,1111122 
SCCF RECON,ioos:station:SCCF:51:1,2011-04-06T23:00:00Z,26.5545,-82.1715,1.669,34.14,1111122 
SCCF RECON,ioos:station:SCCF:51:1,2011-04-07T00:00:00Z,26.5545,-82.1715,1.562,34.04,1111122 
SCCF RECON,ioos:station:SCCF:51:1,2011-04-07T01:00:00Z,26.5545,-82.1715,1.47,33.97,1111122 
SCCF RECON,ioos:station:SCCF:51:1,2011-04-07T02:00:00Z,26.5545,-82.1715,1.409,33.95,1111122 
SCCF RECON,ioos:station:SCCF:51:1,2011-04-07T03:00:00Z,26.5545,-82.1715,1.386,33.95,1111122 
SCCF RECON,ioos:station:SCCF:51:1,2011-04-07T04:00:00Z,26.5545,-82.1715,1.448,33.98,1111122 
SCCF RECON,ioos:station:SCCF:51:1,2011-04-07T05:00:00Z,26.5545,-82.1715,1.543,34.0,1111122 
SCCF RECON,ioos:station:SCCF:51:1,2011-04-07T06:00:00Z,26.5545,-82.1715,1.651,34.08,1111122 
SCCF RECON,ioos:station:SCCF:51:1,2011-04-07T07:00:00Z,26.5545,-82.1715,1.725,34.24,1111122 
SCCF RECON,ioos:station:SCCF:51:1,2011-04-07T08:00:00Z,26.5545,-82.1715,1.77,34.06,1111122 
SCCF RECON,ioos:station:SCCF:51:1,2011-04-07T09:00:00Z,26.5545,-82.1715,1.78,34.24,1111122 
SCCF RECON,ioos:station:SCCF:51:1,2011-04-07T10:00:00Z,26.5545,-82.1715,1.745,33.98,1111122 
SCCF RECON,ioos:station:SCCF:51:1,2011-04-07T11:00:00Z,26.5545,-82.1715,1.715,33.91,1111122 
SCCF RECON,ioos:station:SCCF:51:1,2011-04-07T12:00:00Z,26.5545,-82.1715,1.704,33.84,1111122 
SCCF RECON,ioos:station:SCCF:51:1,2011-04-07T13:00:00Z,26.5545,-82.1715,1.726,33.79,1111122 
SCCF RECON,ioos:station:SCCF:51:1,2011-04-07T14:00:00Z,26.5545,-82.1715,1.785,33.87,1111122 
SCCF RECON,ioos:station:SCCF:51:1,2011-04-07T15:00:00Z,26.5545,-82.1715,1.859,34.24,1111122 
SCCF RECON,ioos:station:SCCF:51:1,2011-04-07T16:00:00Z,26.5545,-82.1715,1.952,34.35,1111122 
SCCF RECON,ioos:station:SCCF:51:1,2011-04-07T17:00:00Z,26.5545,-82.1715,2.04,34.47,1111122 
SCCF RECON,ioos:station:SCCF:51:1,2011-04-07T18:00:00Z,26.5545,-82.1715,2.095,34.44,1111122 
SCCF RECON,ioos:station:SCCF:51:1,2011-04-07T19:00:00Z,26.5545,-82.1715,2.097,34.43,1111122 
SCCF RECON,ioos:station:SCCF:51:1,2011-04-07T20:00:00Z,26.5545,-82.1715,2.055,34.45,1111122 
SCCF RECON,ioos:station:SCCF:51:1,2011-04-07T21:00:00Z,26.5545,-82.1715,1.986,34.33,1111122 
SCCF RECON,ioos:station:SCCF:51:1,2011-04-07T22:00:00Z,26.5545,-82.1715,1.898,34.09,1111122 
SCCF RECON,ioos:station:SCCF:51:1,2011-04-07T23:00:00Z,26.5545,-82.1715,1.796,33.89,1111122 
SCCF RECON,ioos:station:SCCF:51:1,2011-04-08T00:00:00Z,26.5545,-82.1715,1.686,33.85,1111122 
SCCF RECON,ioos:station:SCCF:51:1,2011-04-08T01:00:00Z,26.5545,-82.1715,1.582,33.85,1111122 
SCCF RECON,ioos:station:SCCF:51:1,2011-04-08T02:00:00Z,26.5545,-82.1715,1.5,33.83,1111122 
SCCF RECON,ioos:station:SCCF:51:1,2011-04-08T03:00:00Z,26.5545,-82.1715,1.45,33.79,1111122 
SCCF RECON,ioos:station:SCCF:51:1,2011-04-08T04:00:00Z,26.5545,-82.1715,1.47,33.8,1111122 
SCCF RECON,ioos:station:SCCF:51:1,2011-04-08T05:00:00Z,26.5545,-82.1715,1.55,33.84,1111122 
SCCF RECON,ioos:station:SCCF:51:1,2011-04-08T06:00:00Z,26.5545,-82.1715,1.65,33.86,1111122 
SCCF RECON,ioos:station:SCCF:51:1,2011-04-08T07:00:00Z,26.5545,-82.1715,1.75,34.29,1111122 
SCCF RECON,ioos:station:SCCF:51:1,2011-04-08T08:00:00Z,26.5545,-82.1715,1.81,34.05,1111122 
SCCF RECON,ioos:station:SCCF:51:1,2011-04-08T09:00:00Z,26.5545,-82.1715,1.84,34.24,1111122 
SCCF RECON,ioos:station:SCCF:51:1,2011-04-08T10:00:00Z,26.5545,-82.1715,1.839,34.14,1111122 
SCCF RECON,ioos:station:SCCF:51:1,2011-04-08T11:00:00Z,26.5545,-82.1715,1.811,33.95,1111122 
SCCF RECON,ioos:station:SCCF:51:1,2011-04-08T12:00:00Z,26.5545,-82.1715,1.798,33.87,1111122 
SCCF RECON,ioos:station:SCCF:51:1,2011-04-08T13:00:00Z,26.5545,-82.1715,1.794,33.86,1111122 
SCCF RECON,ioos:station:SCCF:51:1,2011-04-08T14:00:00Z,26.5545,-82.1715,1.802,33.86,1111122 
SCCF RECON,ioos:station:SCCF:51:1,2011-04-08T15:00:00Z,26.5545,-82.1715,1.831,33.93,1111122 
SCCF RECON,ioos:station:SCCF:51:1,2011-04-08T16:00:00Z,26.5545,-82.1715,1.877,34.19,1111122 
SCCF RECON,ioos:station:SCCF:51:1,2011-04-08T17:00:00Z,26.5545,-82.1715,1.929,34.13,1111122 
SCCF RECON,ioos:station:SCCF:51:1,2011-04-08T18:00:00Z,26.5545,-82.1715,1.992,34.33,1111122 
SCCF RECON,ioos:station:SCCF:51:1,2011-04-08T19:00:00Z,26.5545,-82.1715,2.039,34.48,1111122 
SCCF RECON,ioos:station:SCCF:51:1,2011-04-08T20:00:00Z,26.5545,-82.1715,2.047,34.46,1111122 
SCCF RECON,ioos:station:SCCF:51:1,2011-04-08T21:00:00Z,26.5545,-82.1715,2.007,34.29,1111122 
SCCF RECON,ioos:station:SCCF:51:1,2011-04-08T22:00:00Z,26.5545,-82.1715,1.933,34.07,1111122 
SCCF RECON,ioos:station:SCCF:51:1,2011-04-08T23:00:00Z,26.5545,-82.1715,1.848,34.01,1111122 
SCCF RECON,ioos:station:SCCF:51:1,2011-04-09T00:00:00Z,26.5545,-82.1715,1.739,33.96,1111122 
SCCF RECON,ioos:station:SCCF:51:1,2011-04-09T01:00:00Z,26.5545,-82.1715,1.636,33.87,1111122 
SCCF RECON,ioos:station:SCCF:51:1,2011-04-09T02:00:00Z,26.5545,-82.1715,1.551,33.85,1111122 
SCCF RECON,ioos:station:SCCF:51:1,2011-04-09T03:00:00Z,26.5545,-82.1715,1.472,33.83,1111122 
SCCF RECON,ioos:station:SCCF:51:1,2011-04-09T04:00:00Z,26.5545,-82.1715,1.44,33.81,1111122 
SCCF RECON,ioos:station:SCCF:51:1,2011-04-09T05:00:00Z,26.5545,-82.1715,1.48,33.82,1111122 
SCCF RECON,ioos:station:SCCF:51:1,2011-04-09T06:00:00Z,26.5545,-82.1715,1.55,33.89,1111122 
SCCF RECON,ioos:station:SCCF:51:1,2011-04-09T07:00:00Z,26.5545,-82.1715,1.65,34.02,1111122 
SCCF RECON,ioos:station:SCCF:51:1,2011-04-09T08:00:00Z,26.5545,-82.1715,1.74,34.33,1111122 
SCCF RECON,ioos:station:SCCF:51:1,2011-04-09T09:00:00Z,26.5545,-82.1715,1.81,34.2,1111122 
SCCF RECON,ioos:station:SCCF:51:1,2011-04-09T10:00:00Z,26.5545,-82.1715,1.85,34.31,1111122 
SCCF RECON,ioos:station:SCCF:51:1,2011-04-09T11:00:00Z,26.5545,-82.1715,1.87,34.25,1111122 
SCCF RECON,ioos:station:SCCF:51:1,2011-04-09T12:00:00Z,26.5545,-82.1715,1.868,34.13,1111122 
SCCF RECON,ioos:station:SCCF:51:1,2011-04-09T13:00:00Z,26.5545,-82.1715,1.861,34.08,1111122 
SCCF RECON,ioos:station:SCCF:51:1,2011-04-09T14:00:00Z,26.5545,-82.1715,1.862,34.08,1111122 
SCCF RECON,ioos:station:SCCF:51:1,2011-04-09T15:00:00Z,26.5545,-82.1715,1.892,34.29,1111122 
SCCF RECON,ioos:station:SCCF:51:1,2011-04-09T16:00:00Z,26.5545,-82.1715,1.931,34.31,1111122 
SCCF RECON,ioos:station:SCCF:51:1,2011-04-09T17:00:00Z,26.5545,-82.1715,1.985,34.32,1111122 
SCCF RECON,ioos:station:SCCF:51:1,2011-04-09T18:00:00Z,26.5545,-82.1715,2.028,34.35,1111122 
SCCF RECON,ioos:station:SCCF:51:1,2011-04-09T19:00:00Z,26.5545,-82.1715,2.071,34.34,1111122 
SCCF RECON,ioos:station:SCCF:51:1,2011-04-09T20:00:00Z,26.5545,-82.1715,2.094,34.54,1111122 
SCCF RECON,ioos:station:SCCF:51:1,2011-04-09T21:00:00Z,26.5545,-82.1715,2.073,34.55,1111122 
SCCF RECON,ioos:station:SCCF:51:1,2011-04-09T22:00:00Z,26.5545,-82.1715,2.022,34.36,1111122 
SCCF RECON,ioos:station:SCCF:51:1,2011-04-09T23:00:00Z,26.5545,-82.1715,1.95,34.31,1111122 
SCCF RECON,ioos:station:SCCF:51:1,2011-04-10T00:00:00Z,26.5545,-82.1715,1.858,34.33,1111122 
SCCF RECON,ioos:station:SCCF:51:1,2011-04-10T01:00:00Z,26.5545,-82.1715,1.753,34.25,1111122 
SCCF RECON,ioos:station:SCCF:51:1,2011-04-10T02:00:00Z,26.5545,-82.1715,1.649,34.07,1111122 
SCCF RECON,ioos:station:SCCF:51:1,2011-04-10T03:00:00Z,26.5545,-82.1715,1.554,34.03,1111122 
SCCF RECON,ioos:station:SCCF:51:1,2011-04-10T04:00:00Z,26.5545,-82.1715,1.474,33.9,1111122 
SCCF RECON,ioos:station:SCCF:51:1,2011-04-10T05:00:00Z,26.5545,-82.1715,1.432,33.85,1111122 
SCCF RECON,ioos:station:SCCF:51:1,2011-04-10T06:00:00Z,26.5545,-82.1715,1.455,33.84,1111122 
SCCF RECON,ioos:station:SCCF:51:1,2011-04-10T07:00:00Z,26.5545,-82.1715,1.52,33.92,1111122 
SCCF RECON,ioos:station:SCCF:51:1,2011-04-10T08:00:00Z,26.5545,-82.1715,1.6,34.2,1111122 
SCCF RECON,ioos:station:SCCF:51:1,2011-04-10T09:00:00Z,26.5545,-82.1715,1.69,34.43,1111122 
SCCF RECON,ioos:station:SCCF:51:1,2011-04-10T10:00:00Z,26.5545,-82.1715,1.762,34.48,1111122 
SCCF RECON,ioos:station:SCCF:51:1,2011-04-10T11:00:00Z,26.5545,-82.1715,1.818,34.41,1111122 
SCCF RECON,ioos:station:SCCF:51:1,2011-04-10T12:00:00Z,26.5545,-82.1715,1.85,34.47,1111122 
SCCF RECON,ioos:station:SCCF:51:1,2011-04-10T13:00:00Z,26.5545,-82.1715,1.865,34.49,1111122 
SCCF RECON,ioos:station:SCCF:51:1,2011-04-10T14:00:00Z,26.5545,-82.1715,1.87,34.46,1111122 
SCCF RECON,ioos:station:SCCF:51:1,2011-04-10T15:00:00Z,26.5545,-82.1715,1.887,34.29,1111122 
SCCF RECON,ioos:station:SCCF:51:1,2011-04-10T16:00:00Z,26.5545,-82.1715,1.91,34.33,1111122 
SCCF RECON,ioos:station:SCCF:51:1,2011-04-10T17:00:00Z,26.5545,-82.1715,1.933,34.53,1111122 
SCCF RECON,ioos:station:SCCF:51:1,2011-04-10T18:00:00Z,26.5545,-82.1715,1.963,34.5,1111122 
SCCF RECON,ioos:station:SCCF:51:1,2011-04-10T19:00:00Z,26.5545,-82.1715,2.001,34.55,1111122 
SCCF RECON,ioos:station:SCCF:51:1,2011-04-10T20:00:00Z,26.5545,-82.1715,2.046,34.6,1111122 
SCCF RECON,ioos:station:SCCF:51:1,2011-04-10T21:00:00Z,26.5545,-82.1715,2.076,34.6,1111122 
SCCF RECON,ioos:station:SCCF:51:1,2011-04-10T22:00:00Z,26.5545,-82.1715,2.077,34.59,1111122 
SCCF RECON,ioos:station:SCCF:51:1,2011-04-10T23:00:00Z,26.5545,-82.1715,2.033,34.56,1111122 
SCCF RECON,ioos:station:SCCF:51:1,2011-04-11T00:00:00Z,26.5545,-82.1715,1.967,34.51,1111122 
SCCF RECON,ioos:station:SCCF:51:1,2011-04-11T01:00:00Z,26.5545,-82.1715,1.89,34.45,1111122 
SCCF RECON,ioos:station:SCCF:51:1,2011-04-11T02:00:00Z,26.5545,-82.1715,1.794,34.46,1111122 
SCCF RECON,ioos:station:SCCF:51:1,2011-04-11T03:00:00Z,26.5545,-82.1715,1.69,34.24,1111122 
SCCF RECON,ioos:station:SCCF:51:1,2011-04-11T04:00:00Z,26.5545,-82.1715,1.596,33.93,1111122 
SCCF RECON,ioos:station:SCCF:51:1,2011-04-11T05:00:00Z,26.5545,-82.1715,1.502,33.92,1111122 
SCCF RECON,ioos:station:SCCF:51:1,2011-04-11T06:00:00Z,26.5545,-82.1715,1.45,33.9,1111122 
SCCF RECON,ioos:station:SCCF:51:1,2011-04-11T07:00:00Z,26.5545,-82.1715,1.45,33.87,1111122 
SCCF RECON,ioos:station:SCCF:51:1,2011-04-11T08:00:00Z,26.5545,-82.1715,1.52,33.9,1111122 
SCCF RECON,ioos:station:SCCF:51:1,2011-04-11T09:00:00Z,26.5545,-82.1715,1.607,34.08,1111122 
SCCF RECON,ioos:station:SCCF:51:1,2011-04-11T10:00:00Z,26.5545,-82.1715,1.7,34.51,1111122 
SCCF RECON,ioos:station:SCCF:51:1,2011-04-11T11:00:00Z,26.5545,-82.1715,1.78,34.42,1111122 
SCCF RECON,ioos:station:SCCF:51:1,2011-04-11T12:00:00Z,26.5545,-82.1715,1.838,34.45,1111122 
SCCF RECON,ioos:station:SCCF:51:1,2011-04-11T13:00:00Z,26.5545,-82.1715,1.878,34.59,1111122 
SCCF RECON,ioos:station:SCCF:51:1,2011-04-11T14:00:00Z,26.5545,-82.1715,1.904,34.47,1111122 
SCCF RECON,ioos:station:SCCF:51:1,2011-04-11T15:00:00Z,26.5545,-82.1715,1.912,34.39,1111122 
SCCF RECON,ioos:station:SCCF:51:1,2011-04-11T16:00:00Z,26.5545,-82.1715,1.89,34.4,1111122 